Wichita, KS

5:07 AM CDT on July 28, 2017 (GMT -0500)
Wichita Eisenhower National Airport

Weather History for KICT - October, 2014

Change the Weather History Date:

Thursday, October 23, 2014

  Actual Average Record
Temperature  
Mean Temperature 69 °F 56 °F  
Max Temperature 76 °F 67 °F 91 °F (2012)
Min Temperature 61 °F 45 °F 25 °F (1938)
Degree Days  
Heating Degree Days 0 10  
Month to date heating degree days 91 153  
Since 1 July heating degree days 112 196  
Cooling Degree Days 4 0  
Month to date cooling degree days 56 35  
Year to date cooling degree days 1827 1684  
Growing Degree Days 18 (Base 50)    
Moisture  
Dew Point 59 °F    
Average Humidity 75    
Maximum Humidity 90    
Minimum Humidity 60    
Precipitation  
Precipitation 0.03 in 0.08 in 1.00 in (2002)
Month to date precipitation 1.41 2.20  
Year to date precipitation 23.86 29.43  
Snow  
Snow 0.00 in 0.00 in 0.00 in (2007)
Month to date snowfall 0.0 0.0  
Since 1 July snowfall 0.0 0.0  
Since 1 September snowfall 0.0 0.0  
Snow Depth 0.00 in    
Sea Level Pressure  
Sea Level Pressure 30.06 in    
Wind  
Wind Speed 8 mph (South)    
Max Wind Speed 12 mph    
Max Gust Speed 16 mph    
Visibility 9 miles    
Events      
T = Trace of Precipitation, MM = Missing Value Source: NWS Daily Summary

Daily Weather History Graph

Daily Weather History Graph

Search for Another Location

Airport or City:

Trip Planner

Search our weather history database for the weather conditions in past years. The results will help you decide how hot, cold, wet, or windy it might be!

Date:

Astronomy

Oct. 23, 2014 Rise Set
Actual Time 7:45 AM CDT 6:41 PM CDT
Civil Twilight 7:19 AM CDT 7:08 PM CDT
Nautical Twilight 6:48 AM CDT 7:38 PM CDT
Astronomical Twilight 6:18 AM CDT 8:09 PM CDT
Moon 7:27 AM CDT (10/23) 6:44 PM CDT (10/23)
Length of Visible Light 11h 49m
Length of Day
10h 55m
Waning Crescent, 0% of the Moon is Illuminated
Oct 23
Waning Crescent
Oct 23
New
Oct 30
First Quarter
Nov 6
Full
Nov 14
Last Quarter

Hourly Weather History & Observations

Time (CDT) Temp. Dew Point Humidity Pressure Visibility Wind Dir Wind Speed Gust Speed Precip Events Conditions
12:53 AM 64.0 °F 57.0 °F 78% 30.05 in 10.0 mi South 8.1 mph - N/A   Overcast
1:53 AM 62.1 °F 55.9 °F 80% 30.05 in 10.0 mi South 5.8 mph - N/A   Overcast
2:53 AM 62.1 °F 57.0 °F 84% 30.06 in 10.0 mi South 3.5 mph - N/A   Overcast
3:53 AM 62.1 °F 57.0 °F 84% 30.06 in 10.0 mi South 5.8 mph - N/A   Overcast
4:53 AM 62.1 °F 57.9 °F 86% 30.05 in 10.0 mi South 9.2 mph - 0.03 in   Overcast
5:53 AM 61.0 °F 57.9 °F 90% 30.05 in 10.0 mi South 9.2 mph - N/A   Overcast
6:53 AM 62.1 °F 57.9 °F 86% 30.05 in 10.0 mi South 10.4 mph - N/A   Overcast
7:53 AM 62.1 °F 57.9 °F 86% 30.06 in 10.0 mi South 8.1 mph - N/A   Overcast
8:13 AM 62.1 °F 59.0 °F 90% 30.09 in 7.0 mi South 8.1 mph - N/A   Overcast
8:53 AM 62.1 °F 59.0 °F 90% 30.07 in 7.0 mi South 6.9 mph - N/A   Overcast
9:01 AM 63.0 °F 59.0 °F 87% 30.09 in 7.0 mi South 8.1 mph - N/A   Overcast
9:53 AM 64.0 °F 60.1 °F 87% 30.09 in 7.0 mi South 9.2 mph - N/A   Overcast
10:41 AM 64.9 °F 60.1 °F 84% 30.11 in 7.0 mi South 9.2 mph - N/A   Overcast
10:53 AM 64.9 °F 60.1 °F 84% 30.09 in 8.0 mi South 8.1 mph - N/A   Overcast
11:14 AM 66.0 °F 60.1 °F 81% 30.12 in 7.0 mi South 9.2 mph - N/A   Overcast
11:23 AM 66.0 °F 60.1 °F 81% 30.12 in 8.0 mi SSW 8.1 mph - N/A   Overcast
11:53 AM 66.9 °F 60.1 °F 79% 30.09 in 10.0 mi South 8.1 mph - N/A   Overcast
12:18 PM 66.9 °F 60.1 °F 79% 30.11 in 10.0 mi SSW 9.2 mph - N/A   Overcast
12:49 PM 68.0 °F 60.8 °F 78% 30.10 in 10.0 mi SSW 6.9 mph - N/A   Overcast
12:53 PM 69.1 °F 60.1 °F 73% 30.07 in 10.0 mi South 9.2 mph - N/A   Overcast
3:45 PM 75.0 °F 60.1 °F 60% 30.04 in 10.0 mi Variable 6.9 mph - N/A   Mostly Cloudy
3:53 PM 75.0 °F 60.1 °F 60% 30.01 in 10.0 mi Variable 3.5 mph - N/A   Mostly Cloudy
4:08 PM 73.9 °F 59.0 °F 59% 30.03 in 10.0 mi South 4.6 mph - N/A   Mostly Cloudy
4:53 PM 73.0 °F 59.0 °F 61% 30.01 in 10.0 mi SSE 6.9 mph - N/A   Overcast
5:53 PM 73.0 °F 60.1 °F 64% 30.01 in 10.0 mi SE 6.9 mph - N/A   Overcast
6:53 PM 69.1 °F 59.0 °F 70% 30.01 in 10.0 mi SSE 6.9 mph - N/A   Mostly Cloudy
7:53 PM 66.0 °F 59.0 °F 78% 30.04 in 10.0 mi SE 6.9 mph - N/A   Mostly Cloudy
8:53 PM 64.0 °F 57.9 °F 80% 30.05 in 10.0 mi South 5.8 mph - N/A   Scattered Clouds
9:53 PM 64.0 °F 57.9 °F 80% 30.05 in 10.0 mi SE 8.1 mph - N/A   Scattered Clouds
10:53 PM 63.0 °F 57.9 °F 84% 30.05 in 10.0 mi SSE 9.2 mph - N/A   Scattered Clouds
11:53 PM 63.0 °F 59.0 °F 87% 30.05 in 10.0 mi SSE 10.4 mph - N/A   Mostly Cloudy